Tracking 18844 objects as of 21-Nov-2017
HD Live streaming from Space Station
objects crossing your sky now

EUTE 28A (EB 1)

Track EUTE 28A (EB 1) now!
EUTE 28A (EB 1) is classified as:


NORAD ID: 26719
Int'l Code: 2001-011A
Perigee: 35,774.4 km
Apogee: 35,813.2 km
Inclination: 0.1 °
Period: 1,436.1 minutes
Semi major axis: 42164 km
RCS: 12.5012 m2 (large)
Launch date: March 8, 2001
Source: European Telecommunications Satellite Organization (EUTE)
Launch site: FRENCH GUIANA (FRGUI)

Twenty-four channels; Western and Central Europe as far west as Canary Islands.
aabbcc
Your satellite tracking list
Your tracking list is empty




NASA's NSSDC Master Catalog

Two Line Element Set (TLE):
1 26719U 01011A   17324.93865558 +.00000159 +00000-0 +00000-0 0  9999
2 26719 000.0741 027.9550 0004609 230.5362 172.6537 01.00271625061166
Source of the keplerian elements: AFSPC